ELFIN-B (43616 NORAD) Tracking and Keplerian Element Data

This shows tracking and keplerian element data for the satellite.

Feedback or suggestion? Click here.




ElementValue
Catalog43616
NameELFIN-B
Epoch Orbit3844
Epoch Day143.84519736
Epoch Year2019
RAAN352.9351
Inclination93.0211
Eccentricity0.0019304
Argument of Perigee54.4895
Mean Anonmoly305.8155
Mean Motion15.37924352
Decay Rate2.279E-05
L11 43616U 18070D 19143.84519736 .00002279 00000-0 61015-4 0 9994
L22 43616 93.0211 352.9351 0019304 54.4895 305.8155 15.37924352 38445

Live tracking and technical data element details for ELFIN-B (NORAD 43616). ELFIN-B can be tracked NOW for your location showing map with azimuth and elevation plus other details from your city location.

Track the satellite on the map from your city or location and see movement details for azimuth, elevation, latitude, longitude, range, height, and movement on the map or in text.







IsCatalogInMostPopularTable: catalog: 43616, numindb: 98
Update: records affected: 1



GetName: 43616 ELFIN-B

Hit Count: updated at: Fri, 24 May 2019 21:52:01 GMT